• In Portugal
  • List of Countries
  • For 7 days
  • Water Temperature
  • Satellite Maps
  • Weather Map
  • Weather Widgets
  • user-avatar
    Login

    Hourly Weather Sylhet

    Today, 19 July, Thursday

    Time Temperature Precipitation Wind Pressure Humidity
    00:00 +31°C° 0 mm 1 mps 749 mmHg 75%
    01:00 +31°C° 0 mm 1 mps 748 mmHg 78%
    02:00 +30°C° 0 mm 1 mps 748 mmHg 80%
    03:00 +30°C° 0 mm 1 mps 748 mmHg 82%
    04:00 +30°C° 0.1 mm 1 mps 748 mmHg 83%
    05:00 +28°C° 0.1 mm 0 mps 748 mmHg 84%
    06:00 +28°C° 0 mm 0 mps 748 mmHg 84%
    07:00 +30°C° 0 mm 0 mps 748 mmHg 77%
    08:00 +33°C° 0 mm 1 mps 748 mmHg 71%
    09:00 +35°C° 0 mm 1 mps 747 mmHg 64%
    10:00 +36°C° 0 mm 1 mps 747 mmHg 59%
    11:00 +39°C° 0 mm 1 mps 747 mmHg 54%
    12:00 +41°C° 0 mm 1 mps 746 mmHg 48%
    13:00 +41°C° 0 mm 1 mps 746 mmHg 47%
    14:00 +39°C° 0 mm 0 mps 745 mmHg 45%
    15:00 +39°C° 0 mm 0 mps 744 mmHg 44%
    16:00 +41°C° 0 mm 1 mps 744 mmHg 47%
    17:00 +40°C° 0 mm 1 mps 744 mmHg 50%
    18:00 +39°C° 0 mm 1 mps 744 mmHg 54%
    19:00 +37°C° 0 mm 1 mps 744 mmHg 57%
    20:00 +37°C° 0 mm 2 mps 745 mmHg 59%
    21:00 +36°C° 0 mm 2 mps 745 mmHg 62%
    22:00 +35°C° 1.6 mm 2 mps 746 mmHg 68%
    23:00 +34°C° 1.6 mm 2 mps 746 mmHg 74%

    Tomorrow, 20 July, Friday

    Time Temperature Precipitation Wind Pressure Humidity
    00:00 +31°C° 1.6 mm 3 mps 747 mmHg 80%
    01:00 +31°C° 2.6 mm 2 mps 747 mmHg 83%
    02:00 +30°C° 2.6 mm 2 mps 747 mmHg 86%
    03:00 +30°C° 2.6 mm 2 mps 746 mmHg 89%
    04:00 +30°C° 0.3 mm 1 mps 747 mmHg 89%
    05:00 +30°C° 0.3 mm 1 mps 747 mmHg 89%
    06:00 +30°C° 0.3 mm 1 mps 747 mmHg 89%
    07:00 +31°C° 0.1 mm 1 mps 747 mmHg 83%
    08:00 +32°C° 0.1 mm 1 mps 747 mmHg 78%
    09:00 +34°C° 0.1 mm 1 mps 748 mmHg 72%
    10:00 +35°C° 0 mm 1 mps 747 mmHg 68%
    11:00 +36°C° 0 mm 1 mps 747 mmHg 64%
    12:00 +37°C° 0 mm 1 mps 747 mmHg 59%
    13:00 +38°C° 0.4 mm 2 mps 746 mmHg 60%
    14:00 +38°C° 0.4 mm 2 mps 746 mmHg 61%
    15:00 +38°C° 0.4 mm 3 mps 745 mmHg 61%
    16:00 +36°C° 0.9 mm 3 mps 745 mmHg 67%
    17:00 +35°C° 0.9 mm 3 mps 746 mmHg 72%
    18:00 +34°C° 0.9 mm 4 mps 746 mmHg 77%
    19:00 +33°C° 0.2 mm 3 mps 747 mmHg 79%
    20:00 +31°C° 0.2 mm 3 mps 747 mmHg 81%
    21:00 +31°C° 0.2 mm 2 mps 748 mmHg 82%
    22:00 +30°C° 0.2 mm 2 mps 748 mmHg 83%
    23:00 +30°C° 0.2 mm 2 mps 748 mmHg 84%

    Day after tomorrow, 21 July, Saturday

    Time Temperature Precipitation Wind Pressure Humidity
    00:00 +30°C° 0.2 mm 2 mps 749 mmHg 84%
    01:00 +30°C° 0 mm 2 mps 748 mmHg 84%
    02:00 +29°C° 0 mm 2 mps 748 mmHg 85%
    03:00 +29°C° 0 mm 2 mps 748 mmHg 85%
    04:00 +29°C° 0 mm 2 mps 748 mmHg 85%
    05:00 +29°C° 0 mm 3 mps 748 mmHg 85%
    06:00 +29°C° 0 mm 3 mps 748 mmHg 85%
    07:00 +30°C° 0 mm 3 mps 749 mmHg 80%
    08:00 +31°C° 0 mm 3 mps 749 mmHg 76%
    09:00 +33°C° 0 mm 3 mps 749 mmHg 71%
    10:00 +34°C° 0 mm 3 mps 749 mmHg 66%
    11:00 +36°C° 0 mm 3 mps 749 mmHg 62%
    12:00 +37°C° 0 mm 3 mps 749 mmHg 57%
    13:00 +37°C° 0.2 mm 3 mps 748 mmHg 58%
    14:00 +37°C° 0.2 mm 3 mps 748 mmHg 59%
    15:00 +37°C° 0.2 mm 4 mps 747 mmHg 59%
    16:00 +35°C° 1 mm 4 mps 747 mmHg 66%
    17:00 +33°C° 1 mm 4 mps 748 mmHg 74%
    18:00 +32°C° 1 mm 4 mps 748 mmHg 81%
    19:00 +30°C° 0.5 mm 4 mps 748 mmHg 82%
    20:00 +30°C° 0.5 mm 4 mps 749 mmHg 84%
    21:00 +29°C° 0.5 mm 3 mps 750 mmHg 85%
    22:00 +29°C° 0.1 mm 3 mps 750 mmHg 85%
    23:00 +29°C° 0.1 mm 3 mps 750 mmHg 85%

    22 July, Sunday

    Time Temperature Precipitation Wind Pressure Humidity
    00:00 +28°C° 0.1 mm 3 mps 750 mmHg 85%
    01:00 +28°C° 0.3 mm 3 mps 750 mmHg 86%
    02:00 +28°C° 0.3 mm 3 mps 749 mmHg 87%
    03:00 +28°C° 0.3 mm 3 mps 749 mmHg 88%
    04:00 +28°C° 0.2 mm 3 mps 749 mmHg 88%
    05:00 +28°C° 0.2 mm 3 mps 749 mmHg 88%
    06:00 +28°C° 0.2 mm 3 mps 749 mmHg 88%
    07:00 +29°C° 0 mm 4 mps 750 mmHg 83%
    08:00 +30°C° 0 mm 4 mps 750 mmHg 78%
    09:00 +32°C° 0 mm 4 mps 750 mmHg 73%
    10:00 +33°C° 0.1 mm 4 mps 750 mmHg 69%
    11:00 +35°C° 0.1 mm 4 mps 749 mmHg 64%
    12:00 +36°C° 0.1 mm 3 mps 749 mmHg 59%
    13:00 +36°C° 0.5 mm 4 mps 748 mmHg 61%
    14:00 +35°C° 0.5 mm 4 mps 748 mmHg 64%
    15:00 +35°C° 0.5 mm 4 mps 747 mmHg 66%
    16:00 +34°C° 0.7 mm 3 mps 747 mmHg 70%
    17:00 +33°C° 0.7 mm 3 mps 747 mmHg 75%
    18:00 +31°C° 0.7 mm 3 mps 747 mmHg 79%
    19:00 +31°C° 0.2 mm 3 mps 748 mmHg 81%
    20:00 +30°C° 0.2 mm 3 mps 749 mmHg 83%
    21:00 +29°C° 0.2 mm 3 mps 750 mmHg 85%
    22:00 +29°C° 0.1 mm 3 mps 750 mmHg 86%
    23:00 +28°C° 0.1 mm 3 mps 750 mmHg 87%

    23 July, Monday

    Time Temperature Precipitation Wind Pressure Humidity
    00:00 +28°C° 0.1 mm 3 mps 750 mmHg 87%
    01:00 +28°C° 0.2 mm 3 mps 750 mmHg 88%
    02:00 +28°C° 0.2 mm 3 mps 749 mmHg 89%
    03:00 +27°C° 0.2 mm 3 mps 749 mmHg 90%
    04:00 +27°C° 0.1 mm 3 mps 749 mmHg 90%
    05:00 +27°C° 0.1 mm 3 mps 749 mmHg 90%
    06:00 +27°C° 0.1 mm 3 mps 749 mmHg 91%
    07:00 +28°C° 0 mm 3 mps 750 mmHg 86%
    08:00 +30°C° 0 mm 3 mps 750 mmHg 81%
    09:00 +32°C° 0 mm 4 mps 750 mmHg 77%
    10:00 +33°C° 0.6 mm 3 mps 750 mmHg 74%
    11:00 +33°C° 0.6 mm 3 mps 750 mmHg 72%
    12:00 +34°C° 0.6 mm 3 mps 749 mmHg 69%
    13:00 +34°C° 1.6 mm 3 mps 749 mmHg 69%
    14:00 +34°C° 1.6 mm 3 mps 748 mmHg 70%
    15:00 +35°C° 1.6 mm 3 mps 748 mmHg 70%
    16:00 +34°C° 1.2 mm 3 mps 748 mmHg 74%
    17:00 +32°C° 1.2 mm 2 mps 748 mmHg 77%
    18:00 +31°C° 1.2 mm 2 mps 749 mmHg 80%
    19:00 +31°C° 0.8 mm 2 mps 749 mmHg 82%
    20:00 +30°C° 0.8 mm 2 mps 750 mmHg 84%
    21:00 +29°C° 0.8 mm 3 mps 751 mmHg 86%
    22:00 +29°C° 0.4 mm 3 mps 751 mmHg 87%
    23:00 +29°C° 0.4 mm 2 mps 751 mmHg 88%

    24 July, Tuesday

    Time Temperature Precipitation Wind Pressure Humidity
    00:00 +28°C° 0.4 mm 2 mps 751 mmHg 89%
    01:00 +28°C° 0.6 mm 2 mps 751 mmHg 90%
    02:00 +28°C° 0.6 mm 2 mps 750 mmHg 91%
    03:00 +28°C° 0.6 mm 2 mps 750 mmHg 91%
    04:00 +28°C° 0.5 mm 2 mps 750 mmHg 92%
    05:00 +28°C° 0.5 mm 2 mps 751 mmHg 92%
    06:00 +27°C° 0.5 mm 2 mps 751 mmHg 92%
    07:00 +29°C° 0.2 mm 2 mps 751 mmHg 87%
    08:00 +30°C° 0.2 mm 2 mps 751 mmHg 82%
    09:00 +31°C° 0.2 mm 3 mps 752 mmHg 78%
    10:00 +32°C° 0.5 mm 2 mps 751 mmHg 73%
    11:00 +34°C° 0.5 mm 2 mps 751 mmHg 69%
    12:00 +35°C° 0.5 mm 2 mps 750 mmHg 65%
    13:00 +35°C° 0.5 mm 2 mps 750 mmHg 65%
    14:00 +36°C° 0.5 mm 2 mps 749 mmHg 64%
    15:00 +36°C° 0.5 mm 2 mps 748 mmHg 64%
    16:00 +35°C° 1 mm 2 mps 748 mmHg 69%
    17:00 +34°C° 1 mm 2 mps 749 mmHg 74%
    18:00 +32°C° 1 mm 2 mps 749 mmHg 79%
    19:00 +31°C° 1.2 mm 2 mps 749 mmHg 82%
    20:00 +30°C° 1.2 mm 2 mps 750 mmHg 85%
    21:00 +29°C° 1.2 mm 3 mps 750 mmHg 88%
    22:00 +29°C° 1.4 mm 3 mps 750 mmHg 89%
    23:00 +29°C° 1.4 mm 3 mps 750 mmHg 90%
    Show more